| time (UTC) | temp F | wind direction | speed MPH | gust MPH | rain 1hr in | rain 24hr in | rain mn in | humidity % | barometer mb |
| 20260507151049 | 56 | 313 | 4.0 | 11.0 | 0.13 | 0.65 | 0.66 | 86 | 1011.1 |
| 20260507150543 | 56 | 21 | 3.0 | 11.0 | 0.12 | 0.63 | 0.63 | 85 | 1011.3 |
| 20260507150036 | 56 | 344 | 2.0 | 6.0 | 0.09 | 0.60 | 0.60 | 86 | 1011.1 |
| 20260507145531 | 57 | 17 | 2.0 | 8.0 | 0.04 | 0.55 | 0.56 | 85 | 1011.0 |
| 20260507145025 | 57 | 71 | 3.0 | 9.0 | 0.03 | 0.54 | 0.54 | 85 | 1011.2 |
| 20260507144519 | 57 | 346 | 4.0 | 9.0 | 0.03 | 0.54 | 0.54 | 85 | 1011.0 |
| 20260507144013 | 57 | 13 | 5.0 | 11.0 | 0.02 | 0.53 | 0.53 | 85 | 1011.0 |
| 20260507143507 | 57 | 24 | 5.0 | 13.0 | 0.03 | 0.53 | 0.53 | 85 | 1010.8 |
| 20260507143232 | 58 | 355 | 5.0 | 13.0 | 0.03 | 0.53 | 0.53 | 85 | 1010.7 |
| 20260507142454 | 58 | 5 | 4.0 | 9.0 | 0.03 | 0.53 | 0.53 | 86 | 1010.7 |
| 20260507141949 | 58 | 14 | 3.0 | 9.0 | 0.03 | 0.53 | 0.53 | 85 | 1010.8 |
| 20260507141443 | 58 | 0 | 4.0 | 9.0 | 0.03 | 0.52 | 0.52 | 85 | 1010.7 |
| 20260507140938 | 59 | 342 | 4.0 | 12.0 | 0.04 | 0.52 | 0.52 | 85 | 1010.6 |
| 20260507140932 | 59 | 22 | 4.0 | 12.0 | 0.05 | 0.51 | 0.51 | 85 | 1010.5 |
| 20260507135925 | 59 | 355 | 3.0 | 10.0 | 0.05 | 0.51 | 0.51 | 85 | 1010.5 |
| 20260507135419 | 59 | 333 | 2.0 | 5.0 | 0.05 | 0.51 | 0.51 | 85 | 1010.5 |
| 20260507134912 | 60 | 274 | 2.0 | 10.0 | 0.05 | 0.51 | 0.51 | 86 | 1010.4 |
| 20260507134407 | 60 | 340 | 2.0 | 11.0 | 0.06 | 0.51 | 0.51 | 86 | 1010.5 |
| 20260507133901 | 60 | 18 | 3.0 | 11.0 | 0.06 | 0.51 | 0.51 | 85 | 1010.5 |
| 20260507133355 | 60 | 326 | 3.0 | 14.0 | 0.05 | 0.50 | 0.50 | 86 | 1010.5 |
| 20260507133120 | 60 | 326 | 2.0 | 14.0 | 0.05 | 0.50 | 0.50 | 86 | 1010.3 |
| 20260507132343 | 60 | 33 | 2.0 | 6.0 | 0.05 | 0.50 | 0.50 | 86 | 1010.2 |
| 20260507131837 | 60 | 306 | 2.0 | 6.0 | 0.06 | 0.50 | 0.50 | 85 | 1010.2 |
| 20260507131331 | 60 | 11 | 2.0 | 9.0 | 0.05 | 0.49 | 0.49 | 85 | 1010.3 |
| 20260507131056 | 60 | 327 | 3.0 | 9.0 | 0.05 | 0.48 | 0.48 | 85 | 1010.4 |
| 20260507130318 | 60 | 25 | 3.0 | 9.0 | 0.05 | 0.46 | 0.46 | 85 | 1010.6 |
| 20260507125813 | 60 | 350 | 3.0 | 9.0 | 0.07 | 0.46 | 0.46 | 85 | 1010.7 |
| 20260507125307 | 60 | 52 | 4.0 | 9.0 | 0.10 | 0.46 | 0.46 | 85 | 1010.8 |
| 20260507124800 | 60 | 47 | 4.0 | 9.0 | 0.13 | 0.46 | 0.46 | 85 | 1010.6 |
| 20260507124255 | 60 | 65 | 4.0 | 13.0 | 0.14 | 0.45 | 0.45 | 84 | 1010.5 |
| 20260507123749 | 60 | 5 | 5.0 | 13.0 | 0.15 | 0.45 | 0.45 | 84 | 1010.5 |
| 20260507123243 | 61 | 40 | 4.0 | 10.0 | 0.17 | 0.45 | 0.45 | 84 | 1010.6 |
| 20260507122737 | 61 | 355 | 4.0 | 11.0 | 0.19 | 0.45 | 0.45 | 84 | 1010.6 |
| 20260507122243 | 61 | 43 | 4.0 | 11.0 | 0.19 | 0.44 | 0.45 | 83 | 1010.7 |
| 20260507121725 | 61 | 9 | 4.0 | 11.0 | 0.23 | 0.44 | 0.44 | 83 | 1010.5 |
| 20260507121219 | 62 | 5 | 4.0 | 13.0 | 0.23 | 0.43 | 0.44 | 82 | 1010.6 |
| 20260507120712 | 62 | 29 | 5.0 | 13.0 | 0.23 | 0.42 | 0.43 | 82 | 1010.6 |
| 20260507120207 | 62 | 0 | 5.0 | 11.0 | 0.23 | 0.41 | 0.41 | 81 | 1010.4 |
| 20260507115704 | 63 | 324 | 4.0 | 11.0 | 0.20 | 0.38 | 0.39 | 81 | 1010.5 |
| 20260507115658 | 64 | 34 | 5.0 | 16.0 | 0.17 | 0.35 | 0.36 | 81 | 1010.6 |
| 20260507114648 | 65 | 355 | 3.0 | 16.0 | 0.16 | 0.32 | 0.32 | 81 | 1010.3 |
| 20260507114143 | 67 | 341 | 0.0 | 7.0 | 0.16 | 0.31 | 0.31 | 83 | 1010.3 |
| 20260507113637 | 67 | 40 | 0.0 | 0.0 | 0.16 | 0.30 | 0.30 | 83 | 1009.9 |
| 20260507113131 | 67 | 18 | 0.0 | 0.0 | 0.15 | 0.28 | 0.28 | 83 | 1009.9 |
| 20260507112624 | 67 | 59 | 0.0 | 1.0 | 0.18 | 0.26 | 0.26 | 83 | 1009.7 |
| 20260507112119 | 67 | 9 | 0.0 | 1.0 | 0.20 | 0.24 | 0.25 | 83 | 1009.9 |
| 20260507111613 | 67 | 17 | 0.0 | 0.0 | 0.18 | 0.20 | 0.20 | 82 | 1010.0 |
| 20260507111107 | 67 | 17 | 0.0 | 0.0 | 0.18 | 0.19 | 0.19 | 82 | 1009.9 |
| 20260507110601 | 67 | 17 | 0.0 | 0.0 | 0.18 | 0.19 | 0.19 | 82 | 1009.7 |
| 20260507110334 | 67 | 17 | 0.0 | 0.0 | 0.17 | 0.18 | 0.18 | 82 | 1009.8 |
| 20260507105820 | 67 | 74 | 0.0 | 0.0 | 0.18 | 0.18 | 0.18 | 82 | 1010.0 |
| 20260507105043 | 67 | 264 | 0.0 | 0.0 | 0.17 | 0.17 | 0.17 | 81 | 1009.8 |
| 20260507104808 | 68 | 286 | 0.0 | 0.0 | 0.16 | 0.16 | 0.16 | 81 | 1009.8 |
| 20260507104031 | 68 | 286 | 0.0 | 0.0 | 0.15 | 0.15 | 0.15 | 81 | 1009.6 |
| 20260507103524 | 68 | 339 | 0.0 | 0.0 | 0.14 | 0.14 | 0.14 | 81 | 1009.7 |
| 20260507103019 | 68 | 339 | 0.0 | 0.0 | 0.12 | 0.12 | 0.13 | 81 | 1009.6 |
| 20260507102512 | 68 | 339 | 0.0 | 0.0 | 0.07 | 0.07 | 0.08 | 80 | 1009.6 |
| 20260507102007 | 68 | 333 | 0.0 | 0.0 | 0.03 | 0.03 | 0.04 | 80 | 1009.6 |
| 20260507101517 | 68 | 324 | 0.0 | 0.0 | 0.02 | 0.02 | 0.02 | 80 | 1009.3 |
| 20260507101458 | 68 | 296 | 0.0 | 0.0 | 0.01 | 0.01 | 0.01 | 79 | 1009.1 |
| 20260507100721 | 68 | 253 | 0.0 | 0.0 | 0.01 | 0.01 | 0.01 | 79 | 1009.1 |
| 20260507095942 | 68 | 253 | 0.0 | 0.0 | 0.01 | 0.01 | 0.01 | 79 | 1008.9 |
| 20260507095437 | 68 | 267 | 0.0 | 0.0 | 0.00 | 0.00 | 0.00 | 79 | 1008.8 |
| 20260507095201 | 68 | 207 | 0.0 | 0.0 | 0.00 | 0.00 | 0.00 | 79 | 1008.8 |
| 20260507094425 | 68 | 204 | 0.0 | 0.0 | 0.00 | 0.00 | 0.00 | 79 | 1008.7 |
| 20260507093919 | 68 | 204 | 0.0 | 0.0 | 0.00 | 0.00 | 0.00 | 78 | 1008.5 |
| 20260507093413 | 68 | 283 | 0.0 | 0.0 | 0.00 | 0.00 | 0.00 | 78 | 1008.5 |
| 20260507092907 | 68 | 290 | 0.0 | 0.0 | 0.00 | 0.00 | 0.00 | 78 | 1008.6 |
| 20260507092401 | 69 | 290 | 0.0 | 0.0 | 0.00 | 0.00 | 0.00 | 78 | 1008.6 |
| 20260507091855 | 69 | 347 | 0.0 | 0.0 | 0.00 | 0.00 | 0.00 | 78 | 1008.6 |
| 20260507091402 | 69 | 214 | 0.0 | 0.0 | 0.00 | 0.00 | 0.00 | 77 | 1008.9 |
| 20260507090843 | 69 | 214 | 0.0 | 0.0 | 0.00 | 0.00 | 0.00 | 77 | 1009.0 |
| 20260507090336 | 69 | 214 | 0.0 | 0.0 | 0.00 | 0.00 | 0.00 | 77 | 1008.8 |
| 20260507085831 | 69 | 214 | 0.0 | 0.0 | 0.00 | 0.00 | 0.00 | 77 | 1009.0 |
| 20260507085325 | 69 | 223 | 0.0 | 0.0 | 0.00 | 0.00 | 0.00 | 77 | 1009.1 |
| 20260507085050 | 69 | 223 | 0.0 | 0.0 | 0.00 | 0.00 | 0.00 | 77 | 1009.1 |
| 20260507084313 | 69 | 200 | 0.0 | 0.0 | 0.00 | 0.00 | 0.00 | 76 | 1009.2 |
| 20260507084038 | 69 | 200 | 0.0 | 1.0 | 0.00 | 0.00 | 0.00 | 76 | 1009.3 |
| 20260507083300 | 69 | 200 | 0.0 | 1.0 | 0.00 | 0.00 | 0.00 | 76 | 1009.3 |
| 20260507082755 | 69 | 201 | 0.0 | 0.0 | 0.00 | 0.00 | 0.00 | 77 | 1009.2 |
| 20260507082249 | 69 | 217 | 0.0 | 0.0 | 0.00 | 0.00 | 0.00 | 76 | 1009.3 |
| 20260507081742 | 69 | 217 | 0.0 | 0.0 | 0.00 | 0.00 | 0.00 | 77 | 1009.4 |
| 20260507081507 | 68 | 204 | 0.0 | 2.0 | 0.00 | 0.00 | 0.00 | 77 | 1009.5 |
| 20260507080730 | 68 | 94 | 0.0 | 2.0 | 0.00 | 0.00 | 0.00 | 77 | 1009.4 |
| 20260507080225 | 68 | 209 | 0.0 | 0.0 | 0.00 | 0.00 | 0.00 | 77 | 1009.5 |
| 20260507075950 | 68 | 209 | 0.0 | 0.0 | 0.00 | 0.00 | 0.00 | 77 | 1009.6 |
| 20260507075213 | 68 | 209 | 0.0 | 0.0 | 0.00 | 0.00 | 0.00 | 77 | 1009.7 |
| 20260507074707 | 68 | 209 | 0.0 | 0.0 | 0.00 | 0.00 | 0.00 | 77 | 1009.8 |
| 20260507074201 | 68 | 209 | 0.0 | 1.0 | 0.00 | 0.00 | 0.00 | 77 | 1010.0 |
| 20260507073658 | 68 | 209 | 0.0 | 2.0 | 0.00 | 0.00 | 0.00 | 77 | 1009.7 |
| 20260507073159 | 68 | 221 | 0.0 | 2.0 | 0.00 | 0.00 | 0.00 | 77 | 1009.5 |
| 20260507072657 | 68 | 221 | 0.0 | 2.0 | 0.00 | 0.00 | 0.00 | 77 | 1009.7 |
| 20260507072155 | 68 | 221 | 0.0 | 2.0 | 0.00 | 0.00 | 0.00 | 76 | 1009.7 |
| 20260507071653 | 68 | 205 | 0.0 | 2.0 | 0.00 | 0.00 | 0.00 | 76 | 1009.6 |
| 20260507071424 | 69 | 205 | 0.0 | 3.0 | 0.00 | 0.00 | 0.00 | 76 | 1009.5 |
| 20260507070653 | 69 | 191 | 0.0 | 3.0 | 0.00 | 0.00 | 0.00 | 76 | 1009.3 |
| 20260507070150 | 69 | 200 | 0.0 | 0.0 | 0.00 | 0.00 | 0.00 | 75 | 1009.4 |
| 20260507065649 | 69 | 200 | 0.0 | 0.0 | 0.00 | 0.00 | 0.00 | 75 | 1009.5 |
| 20260507065417 | 69 | 200 | 0.0 | 0.0 | 0.00 | 0.00 | 0.00 | 75 | 1009.1 |
| 20260507064645 | 69 | 200 | 0.0 | 0.0 | 0.00 | 0.00 | 0.00 | 75 | 1009.0 |
| 20260507064145 | 69 | 200 | 0.0 | 2.0 | 0.00 | 0.00 | 0.00 | 75 | 1009.1 |
| 20260507063645 | 69 | 200 | 0.0 | 2.0 | 0.00 | 0.00 | 0.00 | 74 | 1009.3 |
| 20260507063144 | 69 | 157 | 0.0 | 1.0 | 0.00 | 0.00 | 0.00 | 73 | 1008.6 |
| 20260507062644 | 69 | 204 | 0.0 | 2.0 | 0.00 | 0.00 | 0.00 | 73 | 1009.2 |
| 20260507062414 | 69 | 204 | 0.0 | 2.0 | 0.00 | 0.00 | 0.00 | 73 | 1009.6 |
| 20260507061640 | 70 | 217 | 0.0 | 0.0 | 0.00 | 0.00 | 0.00 | 73 | 1010.0 |
| 20260507061138 | 70 | 217 | 0.0 | 2.0 | 0.00 | 0.00 | 0.00 | 72 | 1010.3 |
| 20260507060637 | 70 | 227 | 0.0 | 2.0 | 0.00 | 0.00 | 0.00 | 72 | 1010.4 |
| 20260507060408 | 70 | 231 | 0.0 | 2.0 | 0.00 | 0.00 | 0.00 | 72 | 1010.4 |
| 20260507055633 | 70 | 236 | 0.0 | 2.0 | 0.00 | 0.00 | 0.00 | 71 | 1010.5 |
| 20260507055127 | 71 | 223 | 0.0 | 2.0 | 0.00 | 0.00 | 0.00 | 70 | 1010.5 |
| 20260507054621 | 71 | 211 | 0.0 | 2.0 | 0.00 | 0.00 | 0.00 | 69 | 1010.5 |
| 20260507054115 | 71 | 206 | 0.0 | 2.0 | 0.00 | 0.00 | 0.00 | 69 | 1010.6 |
| 20260507053609 | 71 | 217 | 0.0 | 3.0 | 0.00 | 0.00 | 0.00 | 68 | 1010.6 |
| 20260507053103 | 71 | 235 | 0.0 | 3.0 | 0.00 | 0.00 | 0.00 | 68 | 1010.6 |
| 20260507052557 | 71 | 162 | 0.0 | 0.0 | 0.00 | 0.00 | 0.00 | 67 | 1010.6 |
| 20260507052104 | 71 | 215 | 0.0 | 0.0 | 0.00 | 0.00 | 0.00 | 67 | 1010.6 |
| 20260507051544 | 71 | 213 | 0.0 | 0.0 | 0.00 | 0.00 | 0.00 | 66 | 1010.7 |
| 20260507051039 | 71 | 207 | 0.0 | 0.0 | 0.00 | 0.00 | 0.00 | 66 | 1010.6 |
| 20260507050533 | 71 | 225 | 0.0 | 2.0 | 0.00 | 0.00 | 0.00 | 65 | 1010.5 |
| 20260507050027 | 71 | 201 | 0.0 | 2.0 | 0.00 | 0.00 | 0.00 | 65 | 1010.3 |
| 20260507045521 | 71 | 205 | 0.0 | 2.0 | 0.00 | 0.00 | 0.00 | 65 | 1010.3 |
| 20260507045246 | 71 | 187 | 0.0 | 2.0 | 0.00 | 0.00 | 0.00 | 65 | 1010.2 |
| 20260507044744 | 71 | 215 | 0.0 | 2.0 | 0.00 | 0.00 | 0.00 | 65 | 1010.3 |
| 20260507043959 | 71 | 188 | 0.0 | 2.0 | 0.00 | 0.00 | 0.00 | 64 | 1010.3 |
| 20260507043454 | 72 | 209 | 0.0 | 2.0 | 0.00 | 0.00 | 0.00 | 64 | 1010.6 |
| 20260507042947 | 72 | 202 | 0.0 | 2.0 | 0.00 | 0.00 | 0.00 | 65 | 1010.4 |
| 20260507042441 | 72 | 191 | 0.0 | 2.0 | 0.00 | 0.00 | 0.00 | 65 | 1010.6 |
| 20260507041934 | 72 | 200 | 0.0 | 2.0 | 0.00 | 0.00 | 0.00 | 65 | 1010.6 |
| 20260507041429 | 72 | 188 | 0.0 | 2.0 | 0.00 | 0.00 | 0.00 | 65 | 1010.6 |
| 20260507040923 | 72 | 196 | 0.0 | 2.0 | 0.00 | 0.00 | 0.00 | 65 | 1010.5 |
| 20260507040647 | 72 | 180 | 0.0 | 2.0 | 0.00 | 0.00 | 0.00 | 65 | 1010.4 |
| 20260507035911 | 72 | 200 | 0.0 | 1.0 | 0.00 | 0.00 | 0.00 | 65 | 1010.4 |
| 20260507035637 | 72 | 202 | 0.0 | 0.0 | 0.00 | 0.00 | 0.00 | 65 | 1010.2 |
| 20260507035130 | 72 | 202 | 0.0 | 2.0 | 0.00 | 0.00 | 0.00 | 65 | 1010.0 |
| 20260507034405 | 72 | 201 | 0.0 | 2.0 | 0.00 | 0.00 | 0.00 | 66 | 1010.0 |
| 20260507033341 | 72 | 190 | 0.0 | 2.0 | 0.00 | 0.00 | 0.00 | 66 | 1010.1 |
| 20260507032834 | 72 | 197 | 0.0 | 3.0 | 0.00 | 0.00 | 0.00 | 66 | 1010.0 |
| 20260507032329 | 72 | 197 | 1.0 | 3.0 | 0.00 | 0.00 | 0.00 | 66 | 1009.8 |
| 20260507031822 | 72 | 214 | 0.0 | 3.0 | 0.00 | 0.00 | 0.00 | 65 | 1010.0 |
| 20260507031317 | 72 | 196 | 0.0 | 0.0 | 0.00 | 0.00 | 0.00 | 65 | 1010.1 |
| 20260507030811 | 73 | 196 | 0.0 | 0.0 | 0.00 | 0.00 | 0.00 | 64 | 1010.2 |
| 20260507030305 | 73 | 196 | 0.0 | 0.0 | 0.00 | 0.00 | 0.00 | 64 | 1010.2 |
| 20260507025759 | 73 | 196 | 0.0 | 0.0 | 0.00 | 0.00 | 0.00 | 64 | 1010.2 |
| 20260507025253 | 73 | 196 | 0.0 | 0.0 | 0.00 | 0.00 | 0.00 | 64 | 1010.2 |
| 20260507024747 | 73 | 196 | 0.0 | 0.0 | 0.00 | 0.00 | 0.00 | 64 | 1010.4 |
| 20260507024241 | 73 | 196 | 0.0 | 0.0 | 0.00 | 0.00 | 0.00 | 64 | 1010.6 |
| 20260507023735 | 73 | 196 | 0.0 | 0.0 | 0.00 | 0.00 | 0.00 | 64 | 1010.7 |
| 20260507023229 | 73 | 196 | 0.0 | 0.0 | 0.00 | 0.00 | 0.00 | 64 | 1010.8 |
| 20260507022955 | 73 | 196 | 0.0 | 0.0 | 0.00 | 0.00 | 0.00 | 64 | 1010.8 |
| 20260507022230 | 74 | 196 | 0.0 | 0.0 | 0.00 | 0.00 | 0.00 | 64 | 1010.7 |
| 20260507021711 | 74 | 198 | 0.0 | 2.0 | 0.00 | 0.00 | 0.00 | 64 | 1010.7 |
| 20260507021205 | 74 | 198 | 0.0 | 2.0 | 0.00 | 0.00 | 0.00 | 64 | 1010.6 |
| 20260507020659 | 74 | 180 | 0.0 | 1.0 | 0.00 | 0.00 | 0.00 | 63 | 1010.7 |
| 20260507020153 | 74 | 199 | 0.0 | 0.0 | 0.00 | 0.00 | 0.00 | 62 | 1010.7 |
| 20260507015647 | 74 | 199 | 0.0 | 0.0 | 0.00 | 0.00 | 0.00 | 62 | 1010.8 |
| 20260507015141 | 74 | 199 | 0.0 | 0.0 | 0.00 | 0.00 | 0.00 | 61 | 1010.9 |
| 20260507014634 | 74 | 199 | 0.0 | 0.0 | 0.00 | 0.00 | 0.00 | 61 | 1010.9 |
| 20260507014129 | 74 | 198 | 0.0 | 2.0 | 0.00 | 0.00 | 0.00 | 61 | 1010.8 |
| 20260507013623 | 74 | 198 | 0.0 | 2.0 | 0.00 | 0.00 | 0.00 | 61 | 1010.6 |
| 20260507013120 | 74 | 202 | 0.0 | 2.0 | 0.00 | 0.00 | 0.00 | 60 | 1010.5 |
| 20260507013113 | 74 | 212 | 0.0 | 2.0 | 0.00 | 0.00 | 0.00 | 60 | 1010.7 |
| 20260507012104 | 74 | 190 | 0.0 | 0.0 | 0.00 | 0.00 | 0.00 | 60 | 1010.6 |
| 20260507011559 | 74 | 203 | 0.0 | 0.0 | 0.00 | 0.00 | 0.00 | 60 | 1010.7 |
| 20260507011053 | 74 | 207 | 0.0 | 0.0 | 0.00 | 0.00 | 0.00 | 59 | 1010.7 |
| 20260507010547 | 74 | 207 | 0.0 | 0.0 | 0.00 | 0.00 | 0.00 | 59 | 1010.7 |
| 20260507010312 | 75 | 207 | 0.0 | 0.0 | 0.00 | 0.00 | 0.00 | 59 | 1010.8 |
| 20260507005535 | 75 | 216 | 0.0 | 0.0 | 0.00 | 0.00 | 0.00 | 58 | 1010.7 |
| 20260507005028 | 75 | 216 | 0.0 | 0.0 | 0.00 | 0.00 | 0.00 | 58 | 1010.7 |
| 20260507004754 | 75 | 216 | 0.0 | 0.0 | 0.00 | 0.00 | 0.00 | 58 | 1010.6 |
| 20260507004017 | 75 | 216 | 0.0 | 0.0 | 0.00 | 0.00 | 0.00 | 58 | 1010.5 |
| 20260507003511 | 75 | 216 | 0.0 | 0.0 | 0.00 | 0.00 | 0.00 | 57 | 1010.4 |
| 20260507003249 | 76 | 216 | 0.0 | 0.0 | 0.00 | 0.00 | 0.00 | 57 | 1010.4 |
| 20260507002730 | 76 | 216 | 0.0 | 1.0 | 0.00 | 0.00 | 0.00 | 56 | 1010.4 |
| 20260507001952 | 76 | 216 | 0.0 | 1.0 | 0.00 | 0.00 | 0.00 | 56 | 1010.3 |
| 20260507001447 | 76 | 216 | 0.0 | 2.0 | 0.00 | 0.00 | 0.00 | 56 | 1010.2 |
| 20260507000941 | 76 | 216 | 0.0 | 2.0 | 0.00 | 0.00 | 0.00 | 56 | 1010.1 |
| 20260507000435 | 76 | 183 | 0.0 | 2.0 | 0.00 | 0.00 | 0.00 | 56 | 1009.9 |
| 20260506235929 | 76 | 195 | 0.0 | 2.0 | 0.00 | 0.00 | 0.00 | 56 | 1010.0 |
| 20260506235422 | 76 | 212 | 0.0 | 0.0 | 0.00 | 0.00 | 0.00 | 55 | 1010.1 |
| 20260506234917 | 76 | 209 | 0.0 | 0.0 | 0.00 | 0.00 | 0.00 | 55 | 1010.1 |
| 20260506234411 | 76 | 212 | 0.0 | 0.0 | 0.00 | 0.00 | 0.00 | 55 | 1010.0 |
| 20260506233905 | 76 | 209 | 0.0 | 0.0 | 0.00 | 0.00 | 0.00 | 55 | 1009.8 |
| 20260506233359 | 77 | 209 | 0.0 | 0.0 | 0.00 | 0.00 | 0.00 | 55 | 1009.7 |
| 20260506232853 | 77 | 185 | 0.0 | 0.0 | 0.00 | 0.00 | 0.00 | 55 | 1009.6 |
| 20260506232618 | 77 | 185 | 0.0 | 0.0 | 0.00 | 0.00 | 0.00 | 56 | 1009.7 |
| 20260506231840 | 77 | 185 | 0.0 | 1.0 | 0.00 | 0.00 | 0.00 | 55 | 1009.6 |
| 20260506231335 | 77 | 215 | 0.0 | 2.0 | 0.00 | 0.00 | 0.00 | 55 | 1009.6 |
| 20260506230829 | 78 | 219 | 0.0 | 2.0 | 0.00 | 0.00 | 0.00 | 54 | 1009.5 |
| 20260506230336 | 78 | 182 | 0.0 | 2.0 | 0.00 | 0.00 | 0.00 | 54 | 1009.5 |
| 20260506225817 | 78 | 202 | 0.0 | 4.0 | 0.00 | 0.00 | 0.00 | 54 | 1009.5 |
| 20260506225311 | 78 | 214 | 0.0 | 4.0 | 0.00 | 0.00 | 0.00 | 54 | 1009.6 |
| 20260506224805 | 78 | 175 | 0.0 | 2.0 | 0.00 | 0.00 | 0.00 | 54 | 1009.5 |
| 20260506224258 | 78 | 218 | 1.0 | 3.0 | 0.00 | 0.00 | 0.00 | 54 | 1009.6 |
| 20260506223753 | 78 | 206 | 1.0 | 3.0 | 0.00 | 0.00 | 0.00 | 54 | 1009.6 |
| 20260506223248 | 78 | 149 | 0.0 | 3.0 | 0.00 | 0.00 | 0.00 | 54 | 1009.6 |
| 20260506223242 | 78 | 212 | 1.0 | 3.0 | 0.00 | 0.00 | 0.00 | 54 | 1009.5 |
| 20260506222235 | 78 | 209 | 1.0 | 3.0 | 0.00 | 0.00 | 0.00 | 54 | 1009.5 |
| 20260506221729 | 78 | 200 | 0.0 | 3.0 | 0.00 | 0.00 | 0.00 | 54 | 1009.6 |
| 20260506221223 | 78 | 213 | 1.0 | 3.0 | 0.00 | 0.00 | 0.00 | 55 | 1009.7 |
| 20260506220717 | 78 | 223 | 1.0 | 5.0 | 0.00 | 0.00 | 0.00 | 54 | 1009.6 |
| 20260506220210 | 78 | 214 | 2.0 | 5.0 | 0.00 | 0.00 | 0.00 | 53 | 1009.5 |
| 20260506215705 | 78 | 210 | 2.0 | 5.0 | 0.00 | 0.00 | 0.00 | 54 | 1009.4 |
| 20260506215159 | 78 | 201 | 1.0 | 5.0 | 0.00 | 0.00 | 0.00 | 54 | 1009.6 |
| 20260506214653 | 78 | 194 | 0.0 | 4.0 | 0.00 | 0.00 | 0.00 | 54 | 1009.6 |
| 20260506214417 | 78 | 185 | 0.0 | 4.0 | 0.00 | 0.00 | 0.00 | 54 | 1009.4 |
| 20260506213641 | 78 | 212 | 1.0 | 4.0 | 0.00 | 0.00 | 0.00 | 54 | 1009.5 |
| 20260506213135 | 78 | 205 | 2.0 | 6.0 | 0.00 | 0.00 | 0.00 | 55 | 1009.2 |
| 20260506212629 | 78 | 217 | 2.0 | 6.0 | 0.00 | 0.00 | 0.00 | 54 | 1009.1 |
| 20260506212122 | 79 | 209 | 2.0 | 5.0 | 0.00 | 0.00 | 0.00 | 54 | 1009.2 |
| 20260506211617 | 78 | 209 | 2.0 | 8.0 | 0.00 | 0.00 | 0.00 | 54 | 1009.2 |
| 20260506211111 | 79 | 159 | 2.0 | 8.0 | 0.00 | 0.00 | 0.00 | 54 | 1009.4 |
| 20260506210604 | 78 | 181 | 2.0 | 8.0 | 0.00 | 0.00 | 0.00 | 54 | 1009.6 |
| 20260506210107 | 79 | 219 | 2.0 | 7.0 | 0.00 | 0.00 | 0.00 | 54 | 1009.7 |
| 20260506205552 | 78 | 149 | 3.0 | 7.0 | 0.00 | 0.00 | 0.00 | 54 | 1009.6 |
| 20260506205047 | 78 | 218 | 2.0 | 7.0 | 0.00 | 0.00 | 0.00 | 54 | 1009.6 |
| 20260506204544 | 78 | 251 | 1.0 | 4.0 | 0.00 | 0.00 | 0.00 | 54 | 1009.7 |
| 20260506204538 | 78 | 223 | 2.0 | 5.0 | 0.00 | 0.00 | 0.00 | 54 | 1009.9 |
| 20260506203528 | 78 | 246 | 2.0 | 5.0 | 0.00 | 0.00 | 0.00 | 54 | 1010.0 |
| 20260506203023 | 78 | 229 | 2.0 | 4.0 | 0.00 | 0.00 | 0.00 | 54 | 1010.2 |
| 20260506202517 | 78 | 196 | 2.0 | 6.0 | 0.00 | 0.00 | 0.00 | 54 | 1010.3 |
| 20260506202010 | 78 | 224 | 3.0 | 6.0 | 0.00 | 0.00 | 0.00 | 54 | 1010.3 |
| 20260506201736 | 79 | 249 | 2.0 | 5.0 | 0.00 | 0.00 | 0.00 | 54 | 1010.5 |
| 20260506200959 | 79 | 208 | 2.0 | 6.0 | 0.00 | 0.00 | 0.00 | 54 | 1010.6 |
| 20260506200452 | 79 | 217 | 3.0 | 10.0 | 0.00 | 0.00 | 0.00 | 54 | 1010.7 |
| 20260506195947 | 78 | 165 | 2.0 | 10.0 | 0.00 | 0.00 | 0.00 | 55 | 1010.8 |
| 20260506195441 | 78 | 181 | 1.0 | 4.0 | 0.00 | 0.00 | 0.00 | 56 | 1010.8 |
| 20260506194935 | 78 | 229 | 1.0 | 4.0 | 0.00 | 0.00 | 0.00 | 57 | 1010.9 |
| 20260506194700 | 78 | 212 | 2.0 | 6.0 | 0.00 | 0.00 | 0.00 | 57 | 1011.0 |
| 20260506193923 | 78 | 171 | 2.0 | 6.0 | 0.00 | 0.00 | 0.00 | 57 | 1011.1 |
| 20260506193417 | 78 | 174 | 2.0 | 7.0 | 0.00 | 0.00 | 0.00 | 57 | 1011.0 |
| 20260506193142 | 78 | 198 | 2.0 | 7.0 | 0.00 | 0.00 | 0.00 | 57 | 1011.0 |
| 20260506192405 | 78 | 194 | 1.0 | 6.0 | 0.00 | 0.00 | 0.00 | 58 | 1011.1 |
| 20260506191859 | 78 | 189 | 1.0 | 5.0 | 0.00 | 0.00 | 0.00 | 58 | 1011.1 |
| 20260506191625 | 77 | 219 | 2.0 | 5.0 | 0.00 | 0.00 | 0.00 | 58 | 1011.2 |
| 20260506190847 | 77 | 207 | 2.0 | 5.0 | 0.00 | 0.00 | 0.00 | 58 | 1011.2 |
| 20260506190341 | 77 | 184 | 2.0 | 11.0 | 0.00 | 0.00 | 0.00 | 59 | 1011.3 |
| 20260506185835 | 77 | 243 | 2.0 | 11.0 | 0.00 | 0.00 | 0.00 | 59 | 1011.4 |
| 20260506185329 | 76 | 219 | 2.0 | 5.0 | 0.00 | 0.00 | 0.00 | 59 | 1011.5 |
| 20260506184823 | 76 | 201 | 2.0 | 6.0 | 0.00 | 0.00 | 0.00 | 58 | 1011.5 |
| 20260506184601 | 77 | 209 | 2.0 | 5.0 | 0.00 | 0.00 | 0.00 | 58 | 1011.5 |
| 20260506183811 | 77 | 163 | 2.0 | 5.0 | 0.00 | 0.00 | 0.00 | 57 | 1011.6 |
| 20260506183305 | 77 | 221 | 2.0 | 5.0 | 0.00 | 0.00 | 0.00 | 57 | 1011.6 |
| 20260506182759 | 77 | 210 | 2.0 | 7.0 | 0.00 | 0.00 | 0.00 | 57 | 1011.7 |
| 20260506182253 | 77 | 218 | 2.0 | 7.0 | 0.00 | 0.00 | 0.00 | 58 | 1011.8 |
| 20260506182018 | 76 | 185 | 2.0 | 7.0 | 0.00 | 0.00 | 0.00 | 57 | 1012.1 |
| 20260506181241 | 76 | 249 | 3.0 | 8.0 | 0.00 | 0.00 | 0.00 | 57 | 1012.2 |
| 20260506180735 | 76 | 209 | 2.0 | 8.0 | 0.00 | 0.00 | 0.00 | 57 | 1012.2 |
| 20260506180229 | 77 | 205 | 3.0 | 9.0 | 0.00 | 0.00 | 0.00 | 56 | 1012.1 |
| 20260506175954 | 77 | 211 | 3.0 | 9.0 | 0.00 | 0.00 | 0.00 | 56 | 1012.2 |
| 20260506175216 | 77 | 214 | 3.0 | 7.0 | 0.00 | 0.00 | 0.00 | 56 | 1012.4 |
| 20260506174711 | 77 | 225 | 3.0 | 7.0 | 0.00 | 0.00 | 0.00 | 56 | 1012.7 |
| 20260506174436 | 77 | 211 | 2.0 | 5.0 | 0.00 | 0.00 | 0.00 | 57 | 1012.7 |
| 20260506173659 | 76 | 211 | 2.0 | 5.0 | 0.00 | 0.00 | 0.00 | 58 | 1012.8 |
| 20260506173424 | 76 | 172 | 2.0 | 5.0 | 0.00 | 0.00 | 0.00 | 58 | 1012.7 |
| 20260506172647 | 75 | 202 | 2.0 | 5.0 | 0.00 | 0.00 | 0.00 | 60 | 1012.7 |
| 20260506172141 | 75 | 166 | 2.0 | 9.0 | 0.00 | 0.00 | 0.00 | 61 | 1013.0 |
| 20260506171635 | 75 | 215 | 2.0 | 9.0 | 0.00 | 0.00 | 0.00 | 61 | 1012.9 |
| 20260506171129 | 75 | 189 | 2.0 | 7.0 | 0.00 | 0.00 | 0.00 | 60 | 1013.0 |
| 20260506170626 | 75 | 218 | 2.0 | 7.0 | 0.00 | 0.00 | 0.00 | 61 | 1013.0 |
| 20260506170620 | 75 | 178 | 2.0 | 7.0 | 0.00 | 0.00 | 0.00 | 61 | 1013.1 |
| 20260506165610 | 75 | 200 | 2.0 | 5.0 | 0.00 | 0.00 | 0.00 | 60 | 1013.0 |
| 20260506165105 | 75 | 164 | 2.0 | 7.0 | 0.00 | 0.00 | 0.00 | 61 | 1013.0 |
| 20260506164830 | 74 | 192 | 3.0 | 7.0 | 0.00 | 0.00 | 0.00 | 61 | 1013.0 |
| 20260506164053 | 74 | 182 | 2.0 | 6.0 | 0.00 | 0.00 | 0.00 | 64 | 1013.1 |
| 20260506163547 | 73 | 190 | 2.0 | 6.0 | 0.00 | 0.00 | 0.00 | 63 | 1013.1 |
| 20260506163041 | 73 | 204 | 1.0 | 6.0 | 0.00 | 0.00 | 0.00 | 63 | 1013.3 |
| 20260506162535 | 73 | 293 | 1.0 | 6.0 | 0.00 | 0.00 | 0.00 | 64 | 1013.3 |
| 20260506162029 | 73 | 205 | 3.0 | 8.0 | 0.00 | 0.00 | 0.00 | 64 | 1013.5 |
| 20260506161524 | 73 | 212 | 3.0 | 8.0 | 0.00 | 0.00 | 0.00 | 64 | 1013.5 |
| 20260506161017 | 73 | 218 | 2.0 | 5.0 | 0.00 | 0.00 | 0.00 | 63 | 1013.7 |
| 20260506160511 | 73 | 263 | 2.0 | 4.0 | 0.00 | 0.00 | 0.00 | 64 | 1013.7 |
| 20260506160005 | 73 | 204 | 2.0 | 5.0 | 0.00 | 0.00 | 0.00 | 64 | 1013.8 |
| 20260506155459 | 73 | 227 | 2.0 | 6.0 | 0.00 | 0.00 | 0.00 | 64 | 1013.9 |
| 20260506154953 | 73 | 184 | 2.0 | 9.0 | 0.00 | 0.00 | 0.00 | 64 | 1013.9 |
| 20260506154447 | 73 | 180 | 2.0 | 9.0 | 0.00 | 0.00 | 0.00 | 63 | 1014.1 |
| 20260506153941 | 73 | 225 | 2.0 | 7.0 | 0.00 | 0.00 | 0.00 | 63 | 1014.3 |
| 20260506153435 | 73 | 198 | 2.0 | 7.0 | 0.00 | 0.00 | 0.00 | 63 | 1014.3 |
| 20260506152929 | 73 | 225 | 2.0 | 7.0 | 0.00 | 0.00 | 0.00 | 64 | 1014.3 |
| 20260506152423 | 73 | 170 | 3.0 | 7.0 | 0.00 | 0.00 | 0.00 | 64 | 1014.2 |
| 20260506152147 | 73 | 213 | 3.0 | 7.0 | 0.00 | 0.00 | 0.00 | 62 | 1014.3 |